H1 CPF 2 NER 2025 11 22 9 326 01 glonass142 H2 2001801 9142 45358 2025 11 22 0 0 0 2025 11 25 23 45 0 900 1 1 0 0 0 1 H9 10 0 61001 0.00000 0 10432724.334 19017193.394 13429077.365 10 0 61001 900.00000 0 10891281.017 20434975.128 10698447.942 10 0 61001 1800.00000 0 11346921.031 21483105.351 7759999.458 10 0 61001 2700.00000 0 11743269.309 22149613.171 4670747.737 10 0 61001 3600.00000 0 12024138.681 22435703.247 1490691.657 10 0 61001 4500.00000 0 12136105.310 22355557.589 -1718353.074 10 0 61001 5400.00000 0 12030982.636 21935607.119 -4893959.872 10 0 61001 6300.00000 0 11668087.805 21213303.212 -7974312.915 10 0 61001 7200.00000 0 11016202.995 20235440.878 -10899419.776 10 0 61001 8100.00000 0 10055146.746 19056104.422 -13612290.347 10 0 61001 9000.00000 0 8776886.828 17734322.699 -16060057.968 10 0 61001 9900.00000 0 7186145.673 16331533.557 -18195019.766 10 0 61001 10800.00000 0 5300471.008 14908965.246 -19975574.998 10 0 61001 11700.00000 0 3149767.109 13525046.017 -21367042.394 10 0 61001 12600.00000 0 775305.138 12232951.845 -22342340.064 10 0 61001 13500.00000 0 -1771746.841 11078396.076 -22882514.541 10 0 61001 14400.00000 0 -4432213.238 10097754.286 -22977108.669 10 0 61001 15300.00000 0 -7141140.975 9316603.139 -22624361.410 10 0 61001 16200.00000 0 -9830277.190 8748734.214 -21831236.045 10 0 61001 17100.00000 0 -12430691.265 8395683.414 -20613276.726 10 0 61001 18000.00000 0 -14875431.805 8246794.625 -18994296.693 10 0 61001 18900.00000 0 -17102107.935 8279813.499 -17005904.819 10 0 61001 19800.00000 0 -19055287.585 8461984.859 -14686880.310 10 0 61001 20700.00000 0 -20688613.251 8751605.845 -12082408.315 10 0 61001 21600.00000 0 -21966547.780 9099967.829 -9243191.994 10 0 61001 22500.00000 0 -22865678.414 9453603.758 -6224458.876 10 0 61001 23400.00000 0 -23375525.989 9756744.906 -3084881.481 10 0 61001 24300.00000 0 -23498827.071 9953882.395 114566.268 10 0 61001 25200.00000 0 -23251278.987 9992324.732 3311794.259 10 0 61001 26100.00000 0 -22660760.168 9824643.061 6444799.630 10 0 61001 27000.00000 0 -21766060.101 9410900.868 9452865.104 10 0 61001 27900.00000 0 -20615173.475 8720574.235 12277729.152 10 0 61001 28800.00000 0 -19263230.965 7734081.900 14864705.745 10 0 61001 29700.00000 0 -17770153.880 6443860.922 17163732.796 10 0 61001 30600.00000 0 -16198130.887 4854942.670 19130329.962 10 0 61001 31500.00000 0 -14609021.985 2985004.666 20726448.385 10 0 61001 32400.00000 0 -13061797.443 863895.391 21921197.140 10 0 61001 33300.00000 0 -11610117.620 -1467349.218 22691433.474 10 0 61001 34200.00000 0 -10300153.514 -3957958.076 23022206.318 10 0 61001 35100.00000 0 -9168737.803 -6549287.410 22907045.144 10 0 61001 36000.00000 0 -8241922.492 -9177017.983 22348088.836 10 0 61001 36900.00000 0 -7534002.616 -11773597.842 21356051.849 10 0 61001 37800.00000 0 -7047046.331 -14270831.151 19950027.744 10 0 61001 38700.00000 0 -6770950.936 -16602507.347 18157132.847 10 0 61001 39600.00000 0 -6684022.759 -18706962.701 16011995.695 10 0 61001 40500.00000 0 -6754057.024 -20529468.665 13556100.694 10 0 61001 41400.00000 0 -6939872.992 -22024347.966 10836997.254 10 0 61001 42300.00000 0 -7193240.337 -23156730.123 7907388.437 10 0 61001 43200.00000 0 -7461116.012 -23903872.560 4824115.765 10 0 61001 44100.00000 0 -7688097.321 -24255991.332 1647059.186 10 0 61001 45000.00000 0 -7818987.236 -24216565.691 -1562026.620 10 0 61001 45900.00000 0 -7801362.762 -23802102.871 -4740716.803 10 0 61001 46800.00000 0 -7588036.465 -23041372.206 -7827137.789 10 0 61001 47700.00000 0 -7139305.448 -21974140.337 -10761180.896 10 0 61001 48600.00000 0 -6424890.753 -20649460.591 -13485683.427 10 0 61001 49500.00000 0 -5425483.176 -19123588.682 -15947553.106 10 0 61001 50400.00000 0 -4133828.145 -17457613.014 -18098812.794 10 0 61001 51300.00000 0 -2555301.972 -15714899.954 -19897544.196 10 0 61001 52200.00000 0 -707953.435 -13958462.338 -21308711.441 10 0 61001 53100.00000 0 1377992.470 -12248362.614 -22304848.004 10 0 61001 54000.00000 0 3661148.910 -10639260.294 -22866593.352 10 0 61001 54900.00000 0 6090457.990 -9178207.049 -22983068.920 10 0 61001 55800.00000 0 8607095.968 -7902781.971 -22652086.277 10 0 61001 56700.00000 0 11146713.485 -6839644.822 -21880183.825 10 0 61001 57600.00000 0 13641917.277 -6003567.140 -20682491.757 10 0 61001 58500.00000 0 16024889.688 -5396980.691 -19082428.451 10 0 61001 59400.00000 0 18230036.625 -5010060.649 -17111234.785 10 0 61001 60300.00000 0 20196553.508 -4821338.296 -14807356.004 10 0 61001 61200.00000 0 21870802.305 -4798815.544 -12215683.815 10 0 61001 62100.00000 0 23208400.857 -4901532.476 -9386674.086 10 0 61001 63000.00000 0 24175937.937 -5081520.070 -6375357.904 10 0 61001 63900.00000 0 24752243.345 -5286054.132 -3240265.886 10 0 61001 64800.00000 0 24929161.158 -5460114.052 -42287.167 10 0 61001 65700.00000 0 24711795.231 -5548941.572 3156514.321 10 0 61001 66600.00000 0 24118218.135 -5500590.923 6294102.983 10 0 61001 67500.00000 0 23178657.224 -5268362.366 9309670.695 10 0 61001 68400.00000 0 21934193.168 -4813016.423 12144808.903 10 0 61001 69300.00000 0 20435026.436 -4104675.565 14744631.362 10 0 61001 70200.00000 0 18738384.858 -3124333.461 17058826.552 10 0 61001 71100.00000 0 16906159.890 -1864908.360 19042620.352 10 0 61001 72000.00000 0 15002370.034 -331796.259 20657631.455 10 0 61001 72900.00000 0 13090556.565 1457099.822 21872604.167 10 0 61001 73800.00000 0 11231219.102 3471866.590 22664005.561 10 0 61001 74700.00000 0 9479396.659 5671583.760 23016476.350 10 0 61001 75600.00000 0 7882493.573 8005793.714 22923127.433 10 0 61001 76500.00000 0 6478439.603 10416378.268 22385676.640 10 0 61001 77400.00000 0 5294259.749 12839766.520 21414422.850 10 0 61001 78300.00000 0 4345112.621 15209383.999 20028057.419 10 0 61001 79200.00000 0 3633836.972 17458243.180 18253315.533 10 0 61001 80100.00000 0 3151025.224 19521569.061 16124473.013 10 0 61001 81000.00000 0 2875621.021 21339351.620 13682696.851 10 0 61001 81900.00000 0 2776016.062 22858719.328 10975260.600 10 0 61001 82800.00000 0 2811600.527 24036034.661 8054638.522 10 0 61001 83700.00000 0 2934702.133 24838623.627 4977495.027 10 0 61001 84600.00000 0 3092832.174 25246066.060 1803588.285 10 0 61001 85500.00000 0 3231143.493 25250991.540 -1405390.875 10 0 61002 0.00000 0 3294995.870 24859346.428 -4587021.810 10 0 61002 900.00000 0 3232519.321 24090119.454 -7679376.367 10 0 61002 1800.00000 0 2997065.346 22974537.105 -10622231.708 10 0 61002 2700.00000 0 2549440.824 21554761.408 -13358254.689 10 0 61002 3600.00000 0 1859828.038 19882145.064 -15834129.278 10 0 61002 4500.00000 0 909307.723 18015117.300 -18001605.652 10 0 61002 5400.00000 0 -309081.111 16016789.702 -19818449.279 10 0 61002 6300.00000 0 -1789791.069 13952383.188 -21249270.767 10 0 61002 7200.00000 0 -3514750.679 11886584.768 -22266219.780 10 0 61002 8100.00000 0 -5453884.998 9880945.549 -22849529.297 10 0 61002 9000.00000 0 -7566151.602 7991429.390 -22987899.634 10 0 61002 9900.00000 0 -9801049.076 6266215.024 -22678714.924 10 0 61002 10800.00000 0 -12100535.146 4743843.344 -21928088.260 10 0 61002 11700.00000 0 -14401274.289 3451786.734 -20750735.024 10 0 61002 12600.00000 0 -16637120.750 2405499.213 -19169677.455 10 0 61002 13500.00000 0 -18741733.040 1607985.689 -17215786.742 10 0 61002 14400.00000 0 -20651210.547 1049906.527 -14927172.136 10 0 61002 15300.00000 0 -22306642.017 710211.018 -12348429.604 10 0 61002 16200.00000 0 -23656459.496 557270.988 -9529765.247 10 0 61002 17100.00000 0 -24658499.694 550464.729 -6526011.142 10 0 61002 18000.00000 0 -25281687.083 642142.598 -3395553.382 10 0 61002 18900.00000 0 -25507269.192 779889.727 -199193.706 10 0 61002 19800.00000 0 -25329553.415 908989.014 3001032.744 10 0 61002 20700.00000 0 -24756115.683 974979.469 6143060.217 10 0 61002 21600.00000 0 -23807473.494 926201.366 9165992.295 10 0 61002 22500.00000 0 -22516238.100 716220.529 12011275.880 10 0 61002 23400.00000 0 -20925782.249 306029.575 14623826.891 10 0 61002 24300.00000 0 -19088479.794 -334066.479 16953086.586 10 0 61002 25200.00000 0 -17063590.846 -1222959.381 18953989.044 10 0 61002 26100.00000 0 -14914880.546 -2367704.190 20587822.177 10 0 61002 27000.00000 0 -12708070.002 -3762986.741 21822966.826 10 0 61002 27900.00000 0 -10508224.543 -5391114.934 22635500.791 10 0 61002 28800.00000 0 -8377186.659 -7222535.160 23009657.049 10 0 61002 29700.00000 0 -6371158.964 -9216853.681 22938127.994 10 0 61002 30600.00000 0 -4538536.205 -11324322.107 22422210.084 10 0 61002 31500.00000 0 -2918075.189 -13487726.984 21471785.948 10 0 61002 32400.00000 0 -1537477.657 -15644606.808 20105143.729 10 0 61002 33300.00000 0 -412444.359 -17729706.081 18348636.175 10 0 61002 34200.00000 0 453760.688 -19677565.786 16236184.812 10 0 61002 35100.00000 0 1070217.713 -21425143.562 13808637.396 10 0 61002 36000.00000 0 1457734.281 -22914354.998 11112989.581 10 0 61002 36900.00000 0 1647729.621 -24094430.037 8201484.615 10 0 61002 37800.00000 0 1680666.889 -24923985.594 5130607.446 10 0 61002 38700.00000 0 1604099.289 -25372726.750 1959992.037 10 0 61002 39600.00000 0 1470412.621 -25422704.004 -1248737.137 10 0 61002 40500.00000 0 1334360.091 -25069072.445 -4433166.721 10 0 61002 41400.00000 0 1250494.461 -24320319.574 -7531315.379 10 0 61002 42300.00000 0 1270607.390 -23197950.906 -10482849.255 10 0 61002 43200.00000 0 1441285.846 -21735645.605 -13230267.290 10 0 61002 44100.00000 0 1801690.744 -19977916.959 -15720032.187 10 0 61002 45000.00000 0 2381653.580 -17978333.695 -17903623.813 10 0 61002 45900.00000 0 3200173.372 -15797376.877 -19738493.580 10 0 61002 46800.00000 0 4264379.065 -13500022.603 -21188900.479 10 0 61002 47700.00000 0 5569002.695 -11153152.331 -22226611.926 10 0 61002 48600.00000 0 7096386.722 -8822899.773 -22831455.575 10 0 61002 49500.00000 0 8817026.200 -6572045.791 -22991711.350 10 0 61002 50400.00000 0 10690623.631 -4457570.402 -22704336.260 10 0 61002 51300.00000 0 12667612.587 -2528464.074 -21975017.963 10 0 61002 52200.00000 0 14691086.332 -823889.228 -20818056.515 10 0 61002 53100.00000 0 16699050.543 628232.152 -19256077.108 10 0 61002 54000.00000 0 18626905.566 1812147.119 -17319579.944 10 0 61002 54900.00000 0 20410054.055 2724679.482 -15046336.597 10 0 61002 55800.00000 0 21986524.539 3375101.581 -12480645.209 10 0 61002 56700.00000 0 23299501.002 3784477.741 -9672459.638 10 0 61002 57600.00000 0 24299652.558 3984509.285 -6676410.114 10 0 61002 58500.00000 0 24947165.917 4015931.873 -3550735.080 10 0 61002 59400.00000 0 25213395.981 3926534.697 -356145.542 10 0 61002 60300.00000 0 25082066.133 3768886.676 2845355.570 10 0 61002 61200.00000 0 24549968.772 3597866.896 5991675.744 10 0 61002 62100.00000 0 23627137.730 3468104.346 9021833.510 10 0 61002 63000.00000 0 22336486.231 3431435.435 11877134.248 10 0 61002 63900.00000 0 20712926.327 3534486.618 14502298.743 10 0 61002 64800.00000 0 18802007.129 3816483.860 16846523.392 10 0 61002 65700.00000 0 16658128.829 4307380.856 18864452.473 10 0 61002 66600.00000 0 14342406.798 5026384.475 20517044.739 10 0 61002 67500.00000 0 11920274.060 5980939.221 21772318.812 10 0 61002 68400.00000 0 9458920.857 7166213.513 22605964.075 10 0 61002 69300.00000 0 7024676.454 8565109.846 23001806.226 10 0 61002 70200.00000 0 4680440.401 10148799.408 22952119.180 10 0 61002 71100.00000 0 2483268.338 11877760.223 22457777.605 10 0 61002 72000.00000 0 482211.114 13703277.145 21528246.998 10 0 61002 72900.00000 0 -1283504.311 15569343.010 20181410.962 10 0 61002 73800.00000 0 -2785877.588 17414883.537 18443238.046 10 0 61002 74700.00000 0 -4009063.606 19176214.822 16347293.364 10 0 61002 75600.00000 0 -4949788.688 20789632.234 13934103.005 10 0 61002 76500.00000 0 -5617237.075 22194023.461 11250382.070 10 0 61002 77400.00000 0 -6032412.377 23333396.757 8348139.979 10 0 61002 78300.00000 0 -6227000.635 24159218.321 5283679.303 10 0 61002 79200.00000 0 -6241782.727 24632460.077 2116506.841 10 0 61002 80100.00000 0 -6124663.059 24725270.728 -1091822.223 10 0 61002 81000.00000 0 -5928398.088 24422198.399 -4278904.423 10 0 61002 81900.00000 0 -5708121.304 23720911.886 -7382708.566 10 0 61002 82800.00000 0 -5518770.353 22632388.579 -10342792.052 10 0 61002 83700.00000 0 -5412526.442 21180559.778 -13101488.248 10 0 61002 84600.00000 0 -5436375.940 19401427.190 -15605040.651 10 0 61002 85500.00000 0 -5629898.971 17341686.978 -17804660.599 10 0 61003 0.00000 0 -6023380.165 15056918.970 -19657486.802 10 0 61003 900.00000 0 -6636323.212 12609415.626 -21127428.182 10 0 61003 1800.00000 0 -7476432.806 10065745.024 -22185870.680 10 0 61003 2700.00000 0 -8539108.733 7494146.118 -22812237.295 10 0 61003 3600.00000 0 -9807473.846 4961868.452 -22994387.932 10 0 61003 4500.00000 0 -11252935.508 2532566.534 -22728852.488 10 0 61003 5400.00000 0 -12836257.150 263857.793 -22020892.831 10 0 61003 6300.00000 0 -14509095.004 -1794854.359 -20884392.906 10 0 61003 7200.00000 0 -16215935.318 -3604202.183 -19341579.631 10 0 61003 8100.00000 0 -17896350.472 -5136245.133 -17422580.591 10 0 61003 9000.00000 0 -19487478.949 -6375374.662 -15164827.668 10 0 61003 9900.00000 0 -20926624.767 -7318696.339 -12612318.867 10 0 61003 10800.00000 0 -22153866.954 -7975875.496 -9814753.272 10 0 61003 11700.00000 0 -23114569.466 -8368455.164 -6826556.592 10 0 61003 12600.00000 0 -23761686.132 -8528677.307 -3705816.857 10 0 61003 13500.00000 0 -24057764.169 -8497859.108 -513151.539 10 0 61003 14400.00000 0 -23976562.555 -8324394.674 2689471.455 10 0 61003 15300.00000 0 -23504217.946 -8061467.912 5839935.652 10 0 61003 16200.00000 0 -22639909.935 -7764574.215 8877177.296 10 0 61003 17100.00000 0 -21395998.447 -7488956.158 11742362.925 10 0 61003 18000.00000 0 -19797628.117 -7287061.591 14380020.748 10 0 61003 18900.00000 0 -17881816.604 -7206131.179 16739104.657 10 0 61003 19800.00000 0 -15696064.963 -7286016.601 18773971.198 10 0 61003 20700.00000 0 -13296547.797 -7557320.767 20445251.695 10 0 61003 21600.00000 0 -10745957.879 -8039937.771 21720603.872 10 0 61003 22500.00000 0 -8111093.814 -8742053.665 22575329.578 10 0 61003 23400.00000 0 -5460289.633 -9659650.055 22992847.662 10 0 61003 24300.00000 0 -2860791.415 -10776531.801 22965013.560 10 0 61003 25200.00000 0 -376188.069 -12064878.638 22492279.742 10 0 61003 26100.00000 0 1935998.755 -13486298.949 21583693.802 10 0 61003 27000.00000 0 4026467.099 -14993343.241 20256733.704 10 0 61003 27900.00000 0 5855941.334 -16531415.845 18536982.414 10 0 61003 28800.00000 0 7396558.722 -18041006.571 16457646.963 10 0 61003 29700.00000 0 8632778.725 -19460150.482 14058929.846 10 0 61003 30600.00000 0 9561777.383 -20727013.905 11387263.435 10 0 61003 31500.00000 0 10193310.227 -21782498.908 8494420.920 10 0 61003 32400.00000 0 10549049.375 -22572757.034 5436519.922 10 0 61003 33300.00000 0 10661422.505 -23051506.207 2272937.361 10 0 61003 34200.00000 0 10572002.513 -23182052.354 -934843.644 10 0 61003 35100.00000 0 10329515.938 -22938929.267 -4124432.298 10 0 61003 36000.00000 0 9987554.668 -22309085.984 -7233750.285 10 0 61003 36900.00000 0 9602088.422 -21292569.894 -10202248.908 10 0 61003 37800.00000 0 9228884.267 -19902675.099 -12972098.487 10 0 61003 38700.00000 0 8920943.638 -18165548.285 -15489325.693 10 0 61003 39600.00000 0 8726066.750 -16119267.469 -17704875.514 10 0 61003 40500.00000 0 8684648.904 -13812431.479 -19575576.192 10 0 61003 41400.00000 0 8827803.235 -11302318.858 -21064987.565 10 0 61003 42300.00000 0 9175890.499 -8652693.159 -22144115.746 10 0 61003 43200.00000 0 9737518.924 -5931346.525 -22791979.985 10 0 61003 44100.00000 0 10509057.100 -3207484.366 -22996020.666 10 0 61003 45000.00000 0 11474680.828 -549060.498 -22752340.667 10 0 61003 45900.00000 0 12606952.162 1979826.052 -22065775.761 10 0 61003 46800.00000 0 13867906.170 4321364.262 -20949793.107 10 0 61003 47700.00000 0 15210599.420 6426193.366 -19426220.337 10 0 61003 48600.00000 0 16581054.621 8255204.896 -17524811.050 10 0 61003 49500.00000 0 17920519.169 9780910.586 -15282655.752 10 0 61003 50400.00000 0 19167942.064 10988320.644 -12743450.284 10 0 61003 51300.00000 0 20262564.582 11875297.653 -9956636.610 10 0 61003 52200.00000 0 21146515.398 12452373.496 -6976433.263 10 0 61003 53100.00000 0 21767300.785 12742039.287 -3860774.966 10 0 61003 54000.00000 0 22080085.170 12777540.450 -670182.585 10 0 61003 54900.00000 0 22049666.324 12601229.711 2533414.154 10 0 61003 55800.00000 0 21652062.505 12262549.177 5687877.949 10 0 61003 56700.00000 0 20875645.375 11815727.910 8732065.782 10 0 61003 57600.00000 0 19721771.594 11317292.974 11607008.175 10 0 61003 58500.00000 0 18204887.091 10823499.295 14257043.346 10 0 61003 59400.00000 0 16352099.871 10387786.628 16630884.978 10 0 61003 60300.00000 0 14202239.227 10058370.368 18682603.899 10 0 61003 61200.00000 0 11804440.274 9876066.948 20372505.703 10 0 61003 62100.00000 0 9216312.094 9872444.586 21667888.601 10 0 61003 63000.00000 0 6501764.560 10068376.434 22543667.955 10 0 61003 63900.00000 0 3728582.756 10473056.452 22982856.447 10 0 61003 64800.00000 0 965848.016 11083519.260 22976891.306 10 0 61003 65700.00000 0 -1718689.313 11884684.467 22525802.632 10 0 61003 66600.00000 0 -4261178.149 12849924.450 21638219.470 10 0 61003 67500.00000 0 -6604071.158 13942133.014 20331213.012 10 0 61003 68400.00000 0 -8698267.078 15115251.632 18629979.026 10 0 61003 69300.00000 0 -10504902.883 16316190.914 16567364.426 10 0 61003 70200.00000 0 -11996721.961 17487068.241 14183245.719 10 0 61003 71100.00000 0 -13158961.596 18567668.954 11523769.894 10 0 61003 72000.00000 0 -13989722.725 19498028.550 8640471.083 10 0 61003 72900.00000 0 -14499806.342 20221027.687 5589279.033 10 0 61003 73800.00000 0 -14712023.182 20684890.538 2429437.849 10 0 61003 74700.00000 0 -14660005.503 20845480.475 -777644.330 10 0 61003 75600.00000 0 -14386570.993 20668295.033 -3969592.221 10 0 61003 76500.00000 0 -13941708.014 20130074.397 -7084283.121 10 0 61003 77400.00000 0 -13380267.800 19219953.735 -10061064.832 10 0 61003 78300.00000 0 -12759461.952 17940108.873 -12841947.023 10 0 61003 79200.00000 0 -12136272.089 16305866.323 -15372741.708 10 0 61003 80100.00000 0 -11564882.445 14345271.448 -17604129.426 10 0 61003 81000.00000 0 -11094245.263 12098131.683 -19492629.416 10 0 61003 81900.00000 0 -10765883.107 9614574.029 -21001454.080 10 0 61003 82800.00000 0 -10612022.051 6953176.787 -22101230.546 10 0 61003 83700.00000 0 -10654135.399 4178753.424 -22770575.033 10 0 61003 84600.00000 0 -10901959.963 1359881.161 -22996508.800 10 0 61003 85500.00000 0 -11353026.649 -1433722.477 -22774707.774 10 0 61004 0.00000 0 -11992725.031 -4133865.470 -22109581.405 10 0 61004 900.00000 0 -12794899.291 -6676479.882 -21014179.255 10 0 61004 1800.00000 0 -13722949.010 -9004041.619 -19509928.606 10 0 61004 2700.00000 0 -14731388.943 -11067715.980 -17626207.595 10 0 61004 3600.00000 0 -15767800.552 -12829136.870 -15399763.509 10 0 61004 4500.00000 0 -16775092.625 -14261748.203 -12873987.892 10 0 61004 5400.00000 0 -17693975.041 -15351652.935 -10098063.228 10 0 61004 6300.00000 0 -18465540.838 -16097936.149 -7125998.361 10 0 61004 7200.00000 0 -19033847.379 -16512450.840 -4015572.083 10 0 61004 8100.00000 0 -19348387.597 -16619077.605 -827205.974 10 0 61004 9000.00000 0 -19366347.194 -16452491.501 2377211.135 10 0 61004 9900.00000 0 -19054552.881 -16056489.876 5535523.849 10 0 61004 10800.00000 0 -18391029.977 -15481953.121 8586512.618 10 0 61004 11700.00000 0 -17366104.196 -14784525.378 11471074.646 10 0 61004 12600.00000 0 -15983001.717 -14022113.528 14133360.765 10 0 61004 13500.00000 0 -14257922.528 -13252309.916 16521846.912 10 0 61004 14400.00000 0 -12219583.919 -12529846.982 18590320.418 10 0 61004 15300.00000 0 -9908252.841 -11904190.214 20298763.086 10 0 61004 16200.00000 0 -7374306.733 -11417369.710 21614115.181 10 0 61004 17100.00000 0 -4676381.601 -11102140.491 22510906.753 10 0 61004 18000.00000 0 -1879182.915 -10980547.966 22971745.068 10 0 61004 18900.00000 0 948951.535 -11062958.142 22987649.484 10 0 61004 19800.00000 0 3738637.638 -11347593.053 22558227.663 10 0 61004 20700.00000 0 6422074.434 -11820591.147 21691689.658 10 0 61004 21600.00000 0 8935609.859 -12456590.740 20404699.097 10 0 61004 22500.00000 0 11222137.879 -13219813.159 18722063.428 10 0 61004 23400.00000 0 13233228.640 -14065601.352 16676267.998 10 0 61004 24300.00000 0 14930903.902 -14942350.772 14306861.559 10 0 61004 25200.00000 0 16288984.232 -15793752.597 11659703.607 10 0 61004 26100.00000 0 17293951.760 -16561255.911 8786086.791 10 0 61004 27000.00000 0 17945292.258 -17186645.677 5741750.267 10 0 61004 27900.00000 0 18255301.840 -17614627.905 2585802.357 10 0 61004 28800.00000 0 18248366.037 -17795312.356 -620426.896 10 0 61004 29700.00000 0 17959741.333 -17686486.989 -3814580.909 10 0 61004 30600.00000 0 17433890.445 -17255586.556 -6934495.741 10 0 61004 31500.00000 0 16722441.832 -16481270.417 -9919418.715 10 0 61004 32400.00000 0 15881860.098 -15354540.991 -12711201.678 10 0 61004 33300.00000 0 14970926.521 -13879353.650 -15255444.569 10 0 61004 34200.00000 0 14048137.177 -12072690.532 -17502565.788 10 0 61004 35100.00000 0 13169129.677 -9964093.551 -19408777.565 10 0 61004 36000.00000 0 12384248.308 -7594674.941 -20936946.520 10 0 61004 36900.00000 0 11736351.341 -5015645.941 -22057322.078 10 0 61004 37800.00000 0 11258953.753 -2286424.662 -22748118.310 10 0 61004 38700.00000 0 10974784.147 527598.088 -22995937.826 10 0 61004 39600.00000 0 10894816.813 3357541.757 -22796029.651 10 0 61004 40500.00000 0 11017819.513 6133664.275 -22152376.414 10 0 61004 41400.00000 0 11330435.514 8788026.001 -21077609.589 10 0 61004 42300.00000 0 11807795.684 11257078.550 -19592754.942 10 0 61004 43200.00000 0 12414633.897 13484070.981 -17726813.713 10 0 61004 44100.00000 0 13106857.739 15421173.736 -15516188.205 10 0 61004 45000.00000 0 13833507.222 17031232.679 -13003963.581 10 0 61004 45900.00000 0 14539017.927 18289081.352 -10239060.447 10 0 61004 46800.00000 0 15165692.231 19182358.235 -7275275.281 10 0 61004 47700.00000 0 15656273.616 19711796.685 -4170228.037 10 0 61004 48600.00000 0 15956514.996 19890977.457 -984237.935 10 0 61004 49500.00000 0 16017632.394 19745556.286 2220850.241 10 0 61004 50400.00000 0 15798540.456 19312000.902 5382866.138 10 0 61004 51300.00000 0 15267775.702 18635892.295 8440516.690 10 0 61004 52200.00000 0 14405026.757 17769862.977 11334568.617 10 0 61004 53100.00000 0 13202207.424 16771259.820 14008987.956 10 0 61004 54000.00000 0 11664027.716 15699630.118 16412015.215 10 0 61004 54900.00000 0 9808038.779 14614136.379 18497156.266 10 0 61004 55800.00000 0 7664149.528 13571007.896 20224070.852 10 0 61004 56700.00000 0 5273634.438 12621135.160 21559342.727 10 0 61004 57600.00000 0 2687672.734 11807906.938 22477117.734 10 0 61004 58500.00000 0 -34521.652 11165379.597 22959598.468 10 0 61004 59400.00000 0 -2827903.419 10716854.380 22997386.768 10 0 61004 60300.00000 0 -5624043.030 10473921.560 22589667.774 10 0 61004 61200.00000 0 -8353718.106 10436011.179 21744231.977 10 0 61004 62100.00000 0 -10949543.514 10590469.289 20477334.380 10 0 61004 63000.00000 0 -13348532.779 10913157.034 18813392.543 10 0 61004 63900.00000 0 -15494485.749 11369548.237 16784528.224 10 0 61004 64800.00000 0 -17340104.252 11916280.455 14429959.990 10 0 61004 65700.00000 0 -18848748.163 12503095.357 11795257.116 10 0 61004 66600.00000 0 -19995758.693 13075087.665 8931467.832 10 0 61004 67500.00000 0 -20769293.377 13575168.524 5894137.664 10 0 61004 68400.00000 0 -21170637.314 13946639.538 2742236.105 10 0 61004 69300.00000 0 -21213977.020 14135768.505 -462987.906 10 0 61004 70200.00000 0 -20925645.910 14094257.114 -3659199.389 10 0 61004 71100.00000 0 -20342872.798 13781495.009 -6784195.954 10 0 61004 72000.00000 0 -19512086.094 13166503.211 -9777127.080 10 0 61004 72900.00000 0 -18486845.449 12229482.793 -12579689.257 10 0 61004 73800.00000 0 -17325488.643 10962901.368 -15137272.582 10 0 61004 74700.00000 0 -16088593.829 9372069.539 -17400035.281 10 0 61004 75600.00000 0 -14836365.131 7475181.169 -19323884.231 10 0 61004 76500.00000 0 -13626052.854 5302814.223 -20871341.579 10 0 61004 77400.00000 0 -12509517.959 2896911.895 -22012279.995 10 0 61004 78300.00000 0 -11531044.138 309285.873 -22724511.978 10 0 61004 79200.00000 0 -10725489.989 -2400296.236 -22994221.692 10 0 61004 80100.00000 0 -10116859.181 -5166359.617 -22816231.106 10 0 61004 81000.00000 0 -9717348.453 -7920213.379 -22194095.576 10 0 61004 81900.00000 0 -9526912.837 -10592580.245 -21140027.481 10 0 61004 82800.00000 0 -9533365.446 -13116255.198 -19674649.878 10 0 61004 83700.00000 0 -9713006.419 -15428682.440 -17826585.550 10 0 61004 84600.00000 0 -10031753.195 -17474343.635 -15631889.981 10 0 61004 85500.00000 0 -10446723.057 -19206858.416 -13133339.899 99